Terminal Aerodrome Forecast
Issued by NWS St Louis, MO

Home | Current Version | Previous Version | Graphics & Text | Print | Product List | Glossary On
Versions: 1 2 3 4 5 6 7 8 9 10 11 12 13 14 15 16 17 18 19 20 21 22 23 24 25 26
576
FTUS43 KLSX 060409 AAC
TAFSTL
TAF AMD
KSTL 060409Z 0604/0706 08008KT P6SM OVC013
     FM060800 VRB04KT 4SM BR OVC010
     FM061300 31006KT 4SM BR OVC015
     FM061700 31011G18KT P6SM BKN025
     FM061800 31011G19KT P6SM BKN040
     FM070000 30008KT P6SM SCT200=

USA.gov is the U.S. government's official web portal to all federal, state and local government web resources and services.